FW2547 Weather Reports


Display with metric or nautical units.
time (UTC)temp
F
wind
direction
speed
MPH
gust
MPH
rain 1hr
in
rain 24hr
in
rain mn
in
humidity
%
barometer
mb
20240623023006 93 169 4.0 6.0 0.00 0.00 0.00 26 1006.5
20240623021504 93 184 4.0 9.0 0.00 0.00 0.00 26 1006.4
20240623020103 94 168 4.0 11.0 0.00 0.00 0.00 26 1006.3
20240623014600 94 196 6.0 12.0 0.00 0.00 0.00 26 1006.2
20240623013100 94 178 7.0 14.0 0.00 0.00 0.00 26 1006.1
20240623011559 94 158 7.0 12.0 0.00 0.00 0.00 26 1006.0
20240623010100 94 175 4.0 10.0 0.00 0.00 0.00 26 1006.1
20240623004553 95 178 7.0 13.0 0.00 0.00 0.00 26 1006.2
20240623003053 95 137 10.0 16.0 0.00 0.00 0.00 25 1006.2
20240623001549 95 144 10.0 17.0 0.00 0.00 0.00 23 1006.3
20240623000107 95 93 5.0 11.0 0.00 0.00 0.00 23 1006.4
20240622234544 95 109 8.0 13.0 0.00 0.00 0.00 22 1006.6
20240622231555 95 183 8.0 14.0 0.00 0.00 0.00 21 1007.0
20240622230102 95 181 7.0 16.0 0.00 0.00 0.00 24 1007.1
20240622224606 95 133 13.0 19.0 0.00 0.00 0.00 24 1007.5
20240622223049 94 163 11.0 20.0 0.00 0.00 0.00 26 1007.3
20240622221557 95 173 14.0 26.0 0.00 0.00 0.00 27 1007.7
20240622220046 94 79 6.0 12.0 0.00 0.00 0.00 25 1008.0
20240622214602 94 203 8.0 13.0 0.00 0.00 0.00 27 1008.1
20240622213038 93 154 11.0 16.0 0.00 0.00 0.00 28 1008.3
20240622211535 92 56 5.0 15.0 0.00 0.00 0.00 30 1008.5
20240622210028 92 175 1.0 10.0 0.00 0.00 0.00 30 1008.8
20240622204525 92 103 3.0 15.0 0.00 0.00 0.00 30 1009.0
20240622203021 92 190 10.0 13.0 0.00 0.00 0.00 30 1009.1
20240622201516 91 178 5.0 11.0 0.00 0.00 0.00 31 1009.4
20240622200014 91 134 12.0 15.0 0.00 0.00 0.00 32 1009.6
20240622194511 91 149 12.0 19.0 0.00 0.00 0.00 33 1009.9
20240622193008 89 164 4.0 11.0 0.00 0.00 0.00 35 1010.1
20240622191514 90 141 6.0 17.0 0.00 0.00 0.00 35 1010.3
20240622190001 88 123 5.0 14.0 0.00 0.00 0.00 36 1010.6
20240622184559 88 170 10.0 15.0 0.00 0.00 0.00 37 1010.7
20240622183057 87 107 5.0 16.0 0.00 0.00 0.00 40 1011.0
20240622181557 87 99 9.0 14.0 0.00 0.00 0.00 40 1011.0
20240622180054 86 152 7.0 11.0 0.00 0.00 0.00 41 1011.2
20240622174547 84 159 5.0 11.0 0.00 0.00 0.00 44 1011.4
20240622173047 84 128 4.0 12.0 0.00 0.00 0.00 44 1011.6
20240622171546 84 178 3.0 14.0 0.00 0.00 0.00 46 1011.5
20240622170037 83 141 8.0 15.0 0.00 0.00 0.00 47 1011.5
20240622164532 83 128 4.0 14.0 0.00 0.00 0.00 47 1011.6
20240622163028 82 150 8.0 14.0 0.00 0.00 0.00 48 1011.8
20240622161527 82 178 9.0 12.0 0.00 0.00 0.00 48 1011.9
20240622160021 81 145 10.0 14.0 0.00 0.00 0.00 50 1012.0
20240622154520 81 133 8.0 13.0 0.00 0.00 0.00 50 1012.2
20240622153013 80 134 9.0 14.0 0.00 0.00 0.00 52 1012.3
20240622151507 79 131 8.0 14.0 0.00 0.00 0.00 53 1012.3
20240622150004 79 123 9.0 14.0 0.00 0.00 0.00 55 1012.5
20240622144559 78 186 8.0 14.0 0.00 0.00 0.00 56 1012.4
20240622143055 78 133 7.0 13.0 0.00 0.00 0.00 57 1012.5
20240622141605 77 123 9.0 15.0 0.00 0.00 0.00 58 1012.5
20240622140048 77 154 10.0 16.0 0.00 0.00 0.00 59 1012.3
20240622134542 77 138 12.0 18.0 0.00 0.00 0.00 59 1012.4
20240622133039 76 148 9.0 15.0 0.00 0.00 0.00 61 1012.3
20240622131537 76 130 9.0 12.0 0.00 0.00 0.00 60 1012.1
20240622130035 76 130 6.0 11.0 0.00 0.00 0.00 61 1012.1
20240622124530 76 130 5.0 10.0 0.00 0.00 0.00 62 1012.1
20240622123026 75 119 2.0 7.0 0.00 0.00 0.00 62 1011.9
20240622121526 75 128 3.0 7.0 0.00 0.00 0.00 62 1011.8
20240622120021 75 117 5.0 9.0 0.00 0.00 0.00 62 1011.6
20240622114517 75 116 3.0 7.0 0.00 0.00 0.00 61 1011.6
20240622113034 76 122 4.0 9.0 0.00 0.00 0.00 62 1011.6
20240622111513 76 126 4.0 8.0 0.00 0.00 0.00 61 1011.4
20240622110011 76 121 4.0 7.0 0.00 0.00 0.00 61 1011.4
20240622104507 76 123 2.0 9.0 0.00 0.00 0.00 60 1011.2
20240622103006 76 103 4.0 8.0 0.00 0.00 0.00 60 1010.9
20240622101505 76 136 4.0 8.0 0.00 0.00 0.00 60 1010.8
20240622100003 76 73 3.0 8.0 0.00 0.00 0.00 60 1010.7
20240622094619 77 126 2.0 9.0 0.00 0.00 0.00 58 1010.6
20240622093057 77 144 6.0 12.0 0.00 0.00 0.00 58 1010.7
20240622091557 78 133 7.0 12.0 0.00 0.00 0.00 57 1010.6
20240622090054 78 138 10.0 14.0 0.00 0.00 0.00 56 1010.6
20240622084553 78 146 9.0 15.0 0.00 0.00 0.00 56 1010.7
20240622083050 79 134 6.0 10.0 0.00 0.00 0.00 55 1010.7
20240622081554 79 133 4.0 9.0 0.00 0.00 0.00 54 1010.6
20240622080100 79 136 3.0 12.0 0.00 0.00 0.00 53 1010.8
20240622074547 80 118 7.0 11.0 0.00 0.00 0.00 52 1010.7
20240622073050 80 134 10.0 16.0 0.00 0.00 0.00 51 1010.5
20240622071538 80 122 12.0 19.0 0.00 0.00 0.00 50 1010.6
20240622070050 81 133 10.0 17.0 0.00 0.00 0.00 49 1010.6
20240622064541 81 147 11.0 18.0 0.00 0.00 0.00 49 1010.7
20240622063111 82 123 12.0 19.0 0.00 0.00 0.00 48 1010.6
20240622061533 82 128 10.0 18.0 0.00 0.00 0.00 48 1010.6
20240622060034 82 145 11.0 18.0 0.00 0.00 0.00 48 1010.8
20240622054526 82 140 13.0 19.0 0.00 0.00 0.00 48 1010.5
20240622053045 82 142 14.0 21.0 0.00 0.00 0.00 48 1010.4
20240622051527 83 111 15.0 21.0 0.00 0.00 0.00 47 1010.3
20240622050025 83 125 9.0 21.0 0.00 0.00 0.00 47 1010.2
20240622044528 83 133 13.0 21.0 0.00 0.00 0.00 46 1010.0
20240622043024 84 84 9.0 20.0 0.00 0.00 0.00 45 1009.9
20240622041523 84 141 16.0 27.0 0.00 0.00 0.00 44 1009.8
20240622040023 85 126 14.0 24.0 0.00 0.00 0.00 42 1009.7
20240622034521 85 138 14.0 26.0 0.00 0.00 0.00 41 1009.6
20240622033024 86 132 13.0 22.0 0.00 0.00 0.00 40 1009.3
20240622031524 86 130 14.0 22.0 0.00 0.00 0.00 40 1009.4
20240622030019 86 107 12.0 23.0 0.00 0.00 0.00 40 1009.0
20240622024518 86 88 13.0 26.0 0.00 0.00 0.00 40 1009.0